Tracking 33404 objects as of 6-Mar-2026
HD Live streaming from Space Station
objects crossing your sky now

STARLINK-5328

Track STARLINK-5328 now!
10-day predictions
STARLINK-5328 is classified as:


NORAD ID: 55657
Int'l Code: 2023-021AF
Perigee: 569.8 km
Apogee: 582.5 km
Inclination: 70.0 °
Period: 96.0 minutes
Semi major axis: 6947 km
RCS: Unknown
Launch date: February 17, 2023
Source: United States (US)
Launch site: AIR FORCE WESTERN TEST RANGE (AFWTR)
Your satellite tracking list
Your tracking list is empty




NASA's NSSDC Master Catalog

Two Line Element Set (TLE):
1 55657U 23021AF  26065.30552314 -.00199917  00000-0 -16776-1 0  9994
2 55657  70.0006 173.1494 0009195 226.1465 133.8936 14.99313756168772
Source of the keplerian elements: AFSPC